Regional Weather Roundup
Issued by NWS

Home | Current Version | Previous Version | Graphics & Text | Print | Product List | Glossary On
Versions: 1 2 3 4 5 6 7 8 9 10 11 12 13 14 15 16 17 18 19 20 21 22 23 24 25 26 27 28 29 30 31 32 33 34 35 36 37 38 39 40 41 42 43 44 45 46 47 48 49 50
000
ASUS43 KOAX 301702
RWRNE

WEATHER ROUNDUP FOR NEBRASKA
NATIONAL WEATHER SERVICE OMAHA NE
1200 PM CDT SUN AUG 30 2015

NOTES: SATELLITE DATA IS BEING USED TO AUGMENT CLOUD COVER ABOVE
       12000 FEET.
       "FAIR" INDICATES FEW OR NO CLOUDS BELOW 12,000 FEET WITH NO
       SIGNIFICANT WEATHER AND/OR OBSTRUCTIONS TO VISIBILITY.

  * THESE STATIONS DO NOT REPORT WEATHER SUCH AS RAIN...SNOW OR FOG.

NEZ001>004-019>022-054>056-301800-
NEBRASKA PANHANDLE

CITY           SKY/WX    TMP DP  RH WIND       PRES   REMARKS
SCOTTSBLUFF    MOSUNNY   80  48  32 SE7       29.98S
ALLIANCE       MOSUNNY   85  49  28 S16       29.98S
CHADRON        MOSUNNY   89  47  23 SW9       29.88F
KIMBALL        SUNNY     89  41  18 S6        30.04S
SIDNEY         SUNNY     85  47  26 S18       30.04S
$$

NEZ057>060-069>072-079>082-301800-
SOUTHWEST NEBRASKA

CITY           SKY/WX    TMP DP  RH WIND       PRES   REMARKS
NORTH PLATTE   SUNNY     84  56  38 S7        30.01S
IMPERIAL       SUNNY     86  48  26 S17       30.03F
LEXINGTON      SUNNY     80  62  54 SE7       30.03S
MC COOK        SUNNY     89  48  24 S15       30.02S
OGALLALA       SUNNY     84  49  29 S18G26    30.01F
$$

NEZ005>010-023>029-035>040-094-301800-
NORTH CENTRAL NEBRASKA

CITY           SKY/WX    TMP DP  RH WIND       PRES   REMARKS
VALENTINE      MOSUNNY   88  47  24 SW21G33   29.91F
AINSWORTH      SUNNY     85  52  32 S15       29.96F
BROKEN BOW     SUNNY     82  59  45 S9        30.00F
O`NEILL        SUNNY     82  63  52 S10       29.98S
ORD            SUNNY     80  61  52 S13       29.99F
THEDFORD       SUNNY     83  53  34 S14G25    30.00R
$$

NEZ041-046>049-061>064-073>077-083>087-301800-
SOUTH CENTRAL NEBRASKA

CITY           SKY/WX    TMP DP  RH WIND       PRES   REMARKS
AURORA         CLOUDY    69  66  88 S10       30.06S
HASTINGS       SUNNY     73  64  73 S8        30.05F
HEBRON         CLOUDY    66  64  93 S8        30.08S
HOLDREGE       SUNNY     75  60  60 S10       30.04S
KEARNEY *      SUNNY     77  63  61 S12       30.04S
YORK           CLOUDY    66  64  94 S9        30.07S
$$

NEZ011>018-030>034-042>045-301800-
NORTHEAST NEBRASKA

CITY           SKY/WX    TMP DP  RH WIND       PRES   REMARKS
NORFOLK        CLOUDY    70  65  84 S14       30.02S
ALBION         SUNNY     72  64  77 SE12      30.02S
BLAIR          CLOUDY    65  64  93 S12       30.07S
COLUMBUS *     CLOUDY    66  59  77 S8        30.06R
FREMONT        CLOUDY    66  63  90 SE9       30.06F
TEKAMAH        CLOUDY    65  63  93 S10       30.06S
$$

NEZ050>053-065>068-078-088>093-301800-
SOUTHEAST NEBRASKA

CITY           SKY/WX    TMP DP  RH WIND       PRES   REMARKS
LINCOLN        CLOUDY    69  64  84 S7        30.07F
OMAHA EPPLEY   CLOUDY    69  64  84 S7        30.07S
BEATRICE       PTSUNNY   69  65  87 S8        30.09S
FALLS CITY     CLOUDY    69  66  90 CALM      30.08S
NEBRASKA CITY  CLOUDY    67  67  98 S6        30.09F
PLATTSMOUTH    CLOUDY    66  65  96 S5        30.08F
$$

NEZ044-045-051>053-067-301800-
OMAHA AREA

CITY           SKY/WX    TMP DP  RH WIND       PRES   REMARKS
EPPLEY FIELD   CLOUDY    69  64  84 S7        30.07S
BLAIR          CLOUDY    65  64  93 S12       30.07S
FREMONT        CLOUDY    66  63  90 SE9       30.06F
MILLARD        CLOUDY    67  64  87 S5        30.07S
OFFUTT AFB     CLOUDY    69  64  84 S9        30.07S
PLATTSMOUTH    CLOUDY    66  65  96 S5        30.08F
WAHOO          CLOUDY    67  63  89 S7        30.07S
$$


USA.gov is the U.S. government's official web portal to all federal, state and local government web resources and services.